DateTimeUTC,F1_A11,F1_S11,BsB_S11,BsG_S11,BsR_S11,BbsB_S11,BbsG_S11,BbsR_S11,BaB_A11,BaG_A11,BaR_A11,T_S11,U_S11,P_S11,T1_A11
2020-08-20T00:00:00Z,00000388,20000608,,,,,,,,,,25.9,08.7,0680.9,31.1
2020-08-20T00:01:00Z,00000388,20000608,,,,,,,,,,26.0,08.7,0680.9,31.1
2020-08-20T00:02:00Z,00000388,20000608,,,,,,,,,,26.0,08.7,0680.9,31.1
2020-08-20T00:03:00Z,00000388,60000608,,,,,,,,,,26.0,08.7,0680.9,31.1
2020-08-20T00:04:00Z,00000388,40000608,0001.74,0001.25,0000.61,0000.61,0000.06,-000.02,0000.14,-000.01,0000.05,25.8,08.7,0681.9,31.1
2020-08-20T00:05:00Z,00000388,00000608,0002.45,0001.72,0000.57,0000.09,0000.42,-000.43,0000.01,0000.05,-000.01,25.8,08.7,0681.9,31.1
2020-08-20T00:06:00Z,00000388,00000608,0002.52,0001.65,0001.58,0000.14,0000.13,0000.38,0000.01,-000.06,0000.04,25.7,08.7,0681.9,31.1
2020-08-20T00:07:00Z,00000388,00000608,0002.99,0000.99,0000.93,0000.29,0000.19,0000.25,-000.16,-000.01,-000.04,25.7,08.7,0681.9,31.1
2020-08-20T00:08:00Z,00000388,00000608,0003.31,0000.84,0000.84,0000.11,0000.26,0000.02,0000.13,-000.02,0000.01,25.7,08.6,0681.9,31.1
2020-08-20T00:09:00Z,00000388,00000608,0002.14,0000.81,0000.54,0001.02,0000.05,-000.43,-000.10,0000.09,0000.08,25.7,08.7,0681.9,31.1
2020-08-20T00:10:00Z,00000388,00000608,0002.44,0001.69,0000.81,-000.36,0000.10,0000.18,-000.09,-000.11,-000.11,25.7,08.6,0681.9,31.1
2020-08-20T00:11:00Z,00000388,00000608,0003.38,0001.76,0000.69,-000.24,-000.17,0000.55,-000.01,0000.04,0000.10,25.7,08.6,0681.9,31.1
2020-08-20T00:12:00Z,00000388,00000608,0002.22,0001.56,0000.48,0000.56,0000.03,-000.17,0000.20,0000.04,0000.01,25.7,08.6,0681.9,31.1
2020-08-20T00:13:00Z,00000388,00000608,0002.34,0000.96,0000.74,0001.06,0000.32,-000.28,-000.17,0000.02,0000.00,25.7,08.7,0681.9,31.1
2020-08-20T00:14:00Z,00000388,00000608,0002.16,0001.11,0000.56,0000.82,0000.47,0000.07,0000.09,-000.05,-000.09,25.7,08.6,0681.9,31.1
2020-08-20T00:15:00Z,00000388,00000608,0001.10,0000.82,0000.56,-000.03,0000.12,-000.10,0000.04,-000.09,0000.07,25.7,08.6,0681.9,31.1
2020-08-20T00:16:00Z,00000388,00000608,0001.29,0001.12,0000.65,-000.19,0000.17,-000.00,-000.09,0000.26,-000.05,25.7,08.7,0681.9,31.1
2020-08-20T00:17:00Z,00000388,00000608,0002.06,0001.00,0000.61,-000.20,0000.22,0000.04,-000.01,-000.13,0000.05,25.7,08.7,0681.9,31.1
2020-08-20T00:18:00Z,00000388,00000608,0002.18,0001.36,0000.72,-000.50,-000.04,0000.23,-000.03,-000.07,-000.01,25.7,08.7,0681.9,31.1
2020-08-20T00:19:00Z,00000388,00000608,0001.15,0001.03,0000.70,0001.06,-000.09,0000.09,-000.13,-000.00,-000.09,25.7,08.7,0681.9,31.1
2020-08-20T00:20:00Z,00000388,00000608,0002.10,0000.91,0000.23,0000.21,-000.06,0000.08,0000.11,0000.03,0000.12,25.7,08.6,0681.8,31.1
2020-08-20T00:21:00Z,00000388,00000608,0000.77,0000.91,0000.75,0000.33,-000.09,0000.46,-000.07,-000.04,0000.06,25.7,08.6,0681.8,31.1
2020-08-20T00:22:00Z,00000388,00000608,0001.73,0001.26,0000.57,0000.46,0000.15,-000.40,-000.04,-000.06,-000.11,25.7,08.6,0681.8,31.1
2020-08-20T00:23:00Z,00000388,00000608,0001.41,0000.62,0001.05,-000.54,0000.13,-000.23,0000.04,-000.13,-000.05,25.7,08.6,0681.8,31.1
2020-08-20T00:24:00Z,00000388,00000608,0001.75,0000.83,0000.72,0000.40,0000.09,0000.20,0000.01,0000.22,-000.11,25.7,08.6,0681.7,31.1
2020-08-20T00:25:00Z,00000388,00000608,0001.41,0000.90,0000.59,0000.00,0000.26,0000.67,-000.02,-000.04,0000.12,25.7,08.6,0681.7,31.1
2020-08-20T00:26:00Z,00000388,00000608,0001.87,0000.82,0000.53,0000.65,0000.27,-000.14,-000.05,-000.14,-000.03,25.7,08.6,0681.8,31.1
2020-08-20T00:27:00Z,00000388,00000608,0002.09,0000.86,0000.20,0000.07,0000.18,0000.02,-000.10,-000.01,-000.01,25.7,08.6,0681.8,31.1
2020-08-20T00:28:00Z,00000388,00000608,0001.66,0001.12,0000.05,0000.39,-000.05,-000.28,0000.07,-000.12,-000.09,25.7,08.5,0681.8,31.1
2020-08-20T00:29:00Z,00000388,00000608,0002.20,0000.61,0000.88,0000.84,-000.13,0000.22,-000.12,0000.16,0000.12,25.7,08.6,0681.8,31.0
2020-08-20T00:30:00Z,00000388,00000608,0001.69,0001.19,0001.14,-000.72,0000.02,0000.20,-000.04,-000.17,-000.13,25.7,08.5,0681.9,31.1
2020-08-20T00:31:00Z,00000388,00000608,0002.02,0000.84,0000.43,0000.58,-000.10,0000.01,-000.01,0000.13,-000.09,25.7,08.4,0681.9,31.1
2020-08-20T00:32:00Z,00000388,00000608,0002.90,0000.19,0000.66,0000.91,0000.28,-000.09,-000.02,-000.10,0000.03,25.7,08.4,0681.9,31.1
2020-08-20T00:33:00Z,00000388,00000608,0001.41,0000.59,0000.74,0000.93,0000.17,0000.12,-000.04,-000.03,0000.01,25.7,08.4,0681.9,31.1
2020-08-20T00:34:00Z,00000388,00000608,0001.35,0001.10,0000.31,0000.01,-000.06,0000.27,-000.02,0000.13,0000.17,25.6,08.4,0681.9,31.1
2020-08-20T00:35:00Z,00000388,00000608,0002.14,0000.80,0000.20,0000.42,-000.42,0000.02,-000.15,-000.19,-000.06,25.6,08.4,0681.9,31.1
2020-08-20T00:36:00Z,00000388,00000608,0002.17,0000.74,0000.70,0000.67,0000.34,-000.11,-000.12,0000.09,0000.03,25.6,08.4,0681.9,31.1
2020-08-20T00:37:00Z,00000388,00000608,0001.14,0001.04,0000.81,-000.19,0000.01,0000.27,0000.19,-000.02,-000.18,25.6,08.3,0681.9,31.1
2020-08-20T00:38:00Z,00000388,00000608,0001.36,0000.92,0000.25,0000.03,-000.07,-000.01,-000.05,-000.19,-000.02,25.6,08.3,0681.9,31.1
2020-08-20T00:39:00Z,00000388,00000608,0001.97,0000.73,-000.16,0000.09,0000.33,-000.25,-000.02,0000.07,0000.08,25.6,08.3,0682.0,31.0
2020-08-20T00:40:00Z,00000388,00000608,0002.79,0000.82,-000.06,0000.09,0000.30,-000.13,-000.16,0000.05,-000.10,25.6,08.3,0682.0,31.0
2020-08-20T00:41:00Z,00000388,00000608,0000.12,0000.54,0000.27,-000.41,0000.03,0000.19,0000.11,-000.05,0000.12,25.6,08.4,0682.0,31.1
2020-08-20T00:42:00Z,00000388,00000608,0000.71,0000.81,0000.74,0000.62,0000.03,-000.07,-000.08,0000.05,-000.00,25.6,08.3,0682.0,31.1
2020-08-20T00:43:00Z,00000388,00000608,0001.93,0000.63,-000.01,0000.26,0000.12,-000.47,0000.00,0000.06,-000.11,25.6,08.3,0682.0,31.1
2020-08-20T00:44:00Z,00000388,00000608,0002.14,0000.50,0000.56,-000.27,0000.15,0000.03,-000.03,0000.02,0000.12,25.6,08.3,0682.0,31.1
2020-08-20T00:45:00Z,00000388,00000608,-000.14,0000.66,0001.04,0000.68,-000.17,0000.20,0000.09,-000.18,-000.21,25.6,08.4,0682.0,31.1
2020-08-20T00:46:00Z,00000388,00000608,0000.43,-000.11,0000.77,0000.02,-000.29,-000.05,-000.13,0000.12,0000.20,25.6,08.3,0682.1,31.1
2020-08-20T00:47:00Z,00000388,00000608,0002.06,0000.50,0000.22,0000.37,0000.27,0000.29,0000.06,-000.13,-000.16,25.6,08.3,0682.0,31.1
2020-08-20T00:48:00Z,00000388,00000608,0000.40,0000.53,0000.13,0000.25,-000.20,-000.16,-000.03,0000.16,0000.09,25.6,08.3,0682.1,31.1
2020-08-20T00:49:00Z,00000388,00000608,0000.83,0000.64,0000.05,0000.22,0000.29,0000.02,0000.07,-000.01,0000.09,25.6,08.4,0682.1,31.1
2020-08-20T00:50:00Z,00000388,00000608,0000.26,0000.44,0000.20,-000.10,0000.26,-000.04,-000.01,-000.00,0000.06,25.6,08.4,0682.0,31.1
2020-08-20T00:51:00Z,00000388,00000608,0000.57,0000.44,0000.20,0000.80,0000.17,-000.60,0000.04,-000.08,-000.13,25.6,08.5,0682.0,31.1
2020-08-20T00:52:00Z,00000388,00000608,0002.04,0000.82,0000.32,0000.73,-000.01,-000.22,-000.08,0000.04,0000.15,25.6,08.5,0682.1,31.1
2020-08-20T00:53:00Z,00000388,00000608,0000.80,0000.56,0000.55,0001.10,0000.03,0000.19,0000.04,0000.09,-000.05,25.6,08.6,0682.1,31.1
2020-08-20T00:54:00Z,00000388,00000608,0000.94,0000.19,0000.09,-000.12,0000.21,-000.17,0000.07,-000.03,-000.10,25.6,08.5,0682.0,31.0
2020-08-20T00:55:00Z,00000388,00000608,0001.33,0000.93,0000.41,0000.65,0000.26,0000.18,-000.04,0000.09,0000.12,25.6,08.6,0682.0,31.1
2020-08-20T00:56:00Z,00000388,00000608,0001.51,0000.01,0000.41,0000.69,-000.22,0000.03,0000.05,-000.01,-000.02,25.6,08.5,0682.0,31.1
2020-08-20T00:57:00Z,00000388,40000608,,,,,,,,,,25.6,08.3,0682.0,31.1
2020-08-20T00:58:00Z,00000388,60000608,,,,,,,,,,25.7,08.5,0681.0,31.1
2020-08-20T00:59:00Z,00000388,20000608,,,,,,,,,,25.8,08.5,0681.0,31.1
2020-08-20T01:00:00Z,00000388,20000608,,,,,,,,,,25.8,08.5,0681.0,31.1
2020-08-20T01:01:00Z,00000388,20000608,,,,,,,,,,25.8,08.4,0681.0,31.1
2020-08-20T01:02:00Z,00000388,20000608,,,,,,,,,,25.8,08.3,0681.0,31.1
2020-08-20T01:03:00Z,00000388,60000608,,,,,,,,,,25.8,08.3,0681.0,31.1
2020-08-20T01:04:00Z,00000388,40000608,0000.20,0000.72,0000.58,0000.08,0000.04,0000.66,0000.00,-000.03,-000.08,25.7,08.6,0682.0,31.1
2020-08-20T01:05:00Z,00000388,00000608,0001.00,0000.60,0000.28,0000.13,-000.06,0000.49,0000.02,0000.05,0000.05,25.6,08.7,0682.0,31.1
2020-08-20T01:06:00Z,00000388,00000608,0000.47,-000.02,-000.01,-000.90,0000.06,-000.29,0000.05,-000.09,-000.03,25.6,08.7,0682.1,31.1
2020-08-20T01:07:00Z,00000388,00000608,0001.36,0000.48,0000.68,0000.03,0000.31,0000.15,-000.00,0000.03,-000.10,25.6,08.7,0682.0,31.1
2020-08-20T01:08:00Z,00000388,00000608,-000.73,0000.69,0000.33,0000.03,-000.16,-000.11,0000.04,0000.01,-000.04,25.6,08.8,0682.0,31.1
2020-08-20T01:09:00Z,00000388,00000608,0000.17,0001.10,0000.15,-000.47,-000.04,-000.09,-000.06,-000.05,0000.19,25.6,08.8,0682.0,31.1
2020-08-20T01:10:00Z,00000388,00000608,0000.88,0000.49,0000.41,0000.14,-000.13,0000.00,0000.01,-000.05,-000.04,25.6,08.8,0682.0,31.0
2020-08-20T01:11:00Z,00000388,00000608,0000.85,0000.99,0000.58,0000.28,-000.09,0000.31,0000.04,-000.00,0000.07,25.6,08.8,0682.0,31.0
2020-08-20T01:12:00Z,00000388,00000608,0000.57,0000.90,0000.36,-000.01,0000.33,0000.19,0000.02,0000.02,-000.13,25.6,08.8,0682.0,31.1
2020-08-20T01:13:00Z,00000388,00000608,0000.44,0000.37,0000.43,-000.42,0000.02,-000.10,-000.02,0000.25,-000.11,25.6,08.8,0682.0,31.1
2020-08-20T01:14:00Z,00000388,00000608,0001.39,0000.88,0000.52,-000.42,-000.02,0000.27,-000.05,-000.22,0000.09,25.6,08.8,0682.0,31.1
2020-08-20T01:15:00Z,00000388,00000608,0001.79,0000.69,0000.49,0000.24,-000.16,0000.09,-000.05,0000.09,0000.01,25.6,08.8,0682.0,31.1
2020-08-20T01:16:00Z,00000388,00000608,0000.55,0000.95,0000.30,-000.32,0000.20,-000.18,0000.12,-000.07,-000.03,25.6,08.8,0682.0,31.1
2020-08-20T01:17:00Z,00000388,00000608,0000.95,0000.81,0000.27,0000.36,0000.34,0000.12,-000.15,-000.09,-000.01,25.6,08.8,0682.0,31.1
2020-08-20T01:18:00Z,00000388,00000608,0000.53,0000.49,0000.43,-000.90,0000.26,0000.14,0000.08,0000.03,0000.09,25.6,08.8,0682.0,31.1
2020-08-20T01:19:00Z,00000388,00000608,0001.19,0000.74,0000.53,0000.33,0000.12,0000.18,0000.01,0000.03,-000.09,25.6,08.8,0682.0,31.1
2020-08-20T01:20:00Z,00000388,00000608,0000.95,0000.46,0000.55,-001.07,0000.20,-000.11,0000.00,-000.08,0000.01,25.6,08.8,0681.9,31.1
2020-08-20T01:21:00Z,00000388,00000608,-000.17,0001.36,0000.10,-000.24,0000.08,0000.12,0000.11,0000.06,0000.15,25.6,08.8,0682.0,31.1
2020-08-20T01:22:00Z,00000388,00000608,0001.22,0000.78,0000.12,-000.29,-000.00,0000.43,-000.17,-000.06,-000.17,25.6,08.9,0682.0,31.1
2020-08-20T01:23:00Z,00000388,00000608,0000.95,0001.46,0000.52,0000.43,0000.25,0000.42,0000.20,0000.10,0000.05,25.6,08.8,0682.0,31.0
2020-08-20T01:24:00Z,00000388,00000608,0000.05,0000.92,0000.16,-000.26,-000.09,-000.02,-000.14,-000.05,0000.06,25.6,08.9,0682.0,31.0
2020-08-20T01:25:00Z,00000388,00000608,0001.55,0000.61,0000.22,-000.61,0000.22,0000.24,-000.11,-000.02,-000.01,25.6,08.9,0681.9,31.1
2020-08-20T01:26:00Z,00000388,00000608,0000.18,0000.75,0000.26,-000.14,0000.53,0000.65,0000.16,-000.07,0000.00,25.6,08.9,0681.9,31.1
2020-08-20T01:27:00Z,00000388,00000608,0001.29,0000.79,0000.13,-000.09,0000.20,-000.02,-000.03,0000.06,-000.06,25.5,08.8,0681.9,31.1
2020-08-20T01:28:00Z,00000388,00000608,-000.15,0000.36,0000.04,-000.17,0000.34,0000.20,0000.08,0000.04,0000.08,25.5,08.9,0681.9,31.1
2020-08-20T01:29:00Z,00000388,00000608,0001.71,0000.14,0000.14,0000.26,-000.12,0000.45,-000.07,-000.08,-000.06,25.6,08.9,0681.9,31.0
2020-08-20T01:30:00Z,00000388,00000608,-000.33,0000.61,0000.61,0000.45,-000.01,0000.07,-000.01,0000.14,0000.10,25.6,08.9,0682.0,31.1
2020-08-20T01:31:00Z,00000388,00000608,0000.22,0001.16,0001.01,-000.91,0000.18,0000.44,-000.03,-000.16,-000.12,25.5,08.9,0682.0,31.1
2020-08-20T01:32:00Z,00000388,00000608,0000.88,0000.82,0000.25,-000.66,0000.68,0000.07,0000.03,0000.02,0000.02,25.5,08.9,0682.0,31.0
2020-08-20T01:33:00Z,00000388,00000608,0001.97,0000.73,-000.19,-000.49,-000.29,0000.02,-000.04,-000.04,-000.01,25.5,08.9,0682.0,31.1
2020-08-20T01:34:00Z,00000388,00000608,-000.20,0000.24,-000.11,0000.13,-000.01,0000.34,0000.03,0000.13,0000.04,25.5,08.9,0682.0,31.0
2020-08-20T01:35:00Z,00000388,00000608,0000.85,0000.43,0000.13,-000.31,0000.20,0000.02,0000.06,0000.11,0000.05,25.5,08.9,0682.0,31.0
2020-08-20T01:36:00Z,00000388,00000608,-000.10,0000.80,0000.47,-000.17,0000.17,0000.29,-000.01,-000.20,0000.11,25.5,08.9,0682.0,31.0
2020-08-20T01:37:00Z,00000388,00000608,-001.25,0000.72,0000.08,-000.28,-000.34,0000.10,-000.05,0000.09,-000.13,25.5,08.9,0682.0,31.0
2020-08-20T01:38:00Z,00000388,00000608,0001.20,0000.12,0000.46,-000.32,0000.04,-000.05,-000.14,-000.11,-000.14,25.5,08.9,0682.0,31.0
2020-08-20T01:39:00Z,00000388,00000608,0000.77,0000.29,-000.03,0000.71,0000.28,0000.19,0000.03,-000.01,-000.00,25.5,08.9,0682.0,31.1
2020-08-20T01:40:00Z,00000388,00000608,0001.53,0000.75,0000.30,-000.16,0000.14,-000.23,0000.05,0000.16,-000.01,25.5,09.0,0682.0,31.1
2020-08-20T01:41:00Z,00000388,00000608,0000.53,0000.51,0000.18,0000.17,0000.60,-000.12,0000.01,-000.07,0000.14,25.5,09.0,0682.0,31.1
2020-08-20T01:42:00Z,00000388,00000608,0000.66,-000.12,0000.61,-000.23,-000.11,0000.50,-000.03,-000.04,-000.10,25.5,09.0,0682.0,31.1
2020-08-20T01:43:00Z,00000388,00000608,-000.81,0000.19,-000.11,0000.44,-000.14,0000.11,-000.04,-000.08,-000.01,25.5,08.9,0682.0,31.1
2020-08-20T01:44:00Z,00000388,00000608,0000.45,0000.14,-000.05,-000.23,0000.11,0000.19,-000.06,-000.01,-000.04,25.5,08.9,0682.0,31.1
2020-08-20T01:45:00Z,00000388,00000608,-001.11,0000.95,0000.69,-000.08,-000.06,0000.21,-000.03,-000.07,0000.01,25.5,08.9,0682.0,31.0
2020-08-20T01:46:00Z,00000388,00000608,0001.09,0000.57,0000.89,0000.20,-000.35,0000.29,0000.06,0000.14,0000.02,25.5,08.9,0682.0,31.1
2020-08-20T01:47:00Z,00000388,00000608,0000.07,0000.63,0000.04,0000.11,0000.31,0000.24,-000.03,-000.12,0000.01,25.5,08.9,0682.0,31.0
2020-08-20T01:48:00Z,00000388,00000608,-001.06,-000.38,0000.33,-001.01,-000.06,0000.52,-000.08,0000.04,-000.12,25.5,08.9,0682.0,31.1
2020-08-20T01:49:00Z,00000388,00000608,0001.13,0000.57,0000.04,-000.37,-000.15,0000.17,0000.04,0000.03,0000.01,25.5,09.0,0682.0,31.1
2020-08-20T01:50:00Z,00000388,00000608,-000.87,0000.38,0000.39,-000.32,0000.43,0000.40,-000.01,-000.02,-000.01,25.5,08.9,0682.0,31.1
2020-08-20T01:51:00Z,00000388,00000608,-001.74,0000.33,0000.25,-000.35,0000.08,0000.30,-000.01,-000.11,0000.06,25.5,09.0,0682.0,31.1
2020-08-20T01:52:00Z,00000388,00000608,0000.20,0000.32,0000.43,-000.45,-000.02,0000.26,-000.08,-000.09,-000.21,25.5,08.9,0682.1,31.1
2020-08-20T01:53:00Z,00000388,00000608,-000.82,0000.38,0000.24,-000.17,-000.47,0000.33,-000.06,0000.04,0000.09,25.5,08.8,0682.0,31.1
2020-08-20T01:54:00Z,00000388,00010608,0000.90,0000.78,0000.39,0000.18,0000.00,0000.25,-000.06,-000.13,-000.02,25.5,08.8,0682.0,31.1
2020-08-20T01:55:00Z,00000388,00000608,0000.51,0000.15,0000.48,-000.86,0000.01,0000.07,-000.11,-000.07,0000.00,25.5,08.7,0682.0,31.1
2020-08-20T01:56:00Z,00000388,00000608,-000.34,0000.13,-000.02,-000.37,-000.33,0000.07,0000.06,0000.11,-000.06,25.5,08.7,0682.0,31.1
2020-08-20T01:57:00Z,00000388,40000608,,,,,,,,,,25.5,09.0,0682.1,31.1
2020-08-20T01:58:00Z,00000388,60000608,,,,,,,,,,25.6,08.6,0681.0,31.1
2020-08-20T01:59:00Z,00000388,20000608,,,,,,,,,,25.7,08.5,0681.0,31.1
2020-08-20T02:00:00Z,00000388,20000608,,,,,,,,,,25.7,08.5,0681.0,31.1
2020-08-20T02:01:00Z,00000388,20000608,,,,,,,,,,25.7,08.4,0681.0,31.1
2020-08-20T02:02:00Z,00000388,20000608,,,,,,,,,,25.7,08.3,0681.0,31.1
2020-08-20T02:03:00Z,00000388,60000608,,,,,,,,,,25.7,08.3,0681.0,31.0
2020-08-20T02:04:00Z,00000388,40000608,0001.77,0000.47,-000.26,0000.51,-000.19,-000.14,0000.11,0000.05,-000.12,25.6,08.5,0681.9,31.1
2020-08-20T02:05:00Z,00000388,00000608,0000.47,0000.35,0000.21,0000.47,0000.10,-000.17,-000.04,-000.09,0000.16,25.5,08.6,0682.0,31.1
2020-08-20T02:06:00Z,00000388,00000608,-000.07,0000.39,-000.48,0000.63,-000.11,-000.04,-000.04,0000.03,-000.16,25.5,08.6,0682.0,31.1
2020-08-20T02:07:00Z,00000388,00000608,0000.60,0000.59,-000.19,0000.20,-000.11,0000.09,-000.03,0000.13,0000.03,25.5,08.7,0682.0,31.1
2020-08-20T02:08:00Z,00000388,00000608,0000.75,0000.72,0000.14,-000.05,0000.04,0000.31,0000.13,0000.04,0000.15,25.5,08.8,0682.0,31.1
2020-08-20T02:09:00Z,00000388,00000608,0000.01,0000.35,0000.28,-000.44,0000.02,-000.43,-000.05,-000.03,-000.03,25.5,08.8,0682.0,31.0
2020-08-20T02:10:00Z,00000388,00000608,0000.11,0000.16,0000.30,0000.24,0000.11,0000.06,-000.07,0000.06,-000.06,25.5,08.9,0682.0,31.1
2020-08-20T02:11:00Z,00000388,00000608,0000.34,0000.36,0000.16,0000.37,-000.34,0000.08,0000.01,-000.04,0000.03,25.5,08.9,0682.0,31.1
2020-08-20T02:12:00Z,00000388,00000608,-000.21,0000.33,-000.07,0000.48,0000.09,-000.13,0000.03,-000.06,-000.01,25.5,08.9,0682.1,31.1
2020-08-20T02:13:00Z,00000388,00000608,0000.22,0000.58,0000.23,0000.79,-000.21,0000.21,0000.03,0000.08,-000.05,25.5,08.8,0682.0,31.1
2020-08-20T02:14:00Z,00000388,00000608,0000.56,-000.08,0000.64,0000.83,-000.14,-000.24,0000.01,-000.04,0000.01,25.5,08.9,0682.0,31.0
2020-08-20T02:15:00Z,00000388,00000608,-000.03,0000.45,0000.19,0000.44,-000.01,0000.29,-000.10,-000.10,-000.07,25.5,08.9,0682.0,31.1
2020-08-20T02:16:00Z,00000388,00000608,0001.44,0000.34,-000.14,0000.39,-000.01,0000.36,-000.01,0000.14,0000.15,25.5,08.9,0682.0,31.1
2020-08-20T02:17:00Z,00000388,00000608,0000.83,0000.82,0000.22,0000.52,0000.22,0000.12,0000.03,-000.14,-000.07,25.5,09.0,0682.0,31.1
2020-08-20T02:18:00Z,00000388,00000608,0000.45,0000.45,0000.19,0000.03,0000.21,0000.41,-000.05,0000.04,-000.00,25.5,08.9,0682.0,31.1
2020-08-20T02:19:00Z,00000388,00000608,0000.68,-000.03,-000.02,0000.36,0000.43,-000.02,-000.02,-000.09,0000.06,25.5,08.9,0682.0,31.1
2020-08-20T02:20:00Z,00000388,00000608,0000.05,0000.69,-000.08,0001.12,0000.01,0000.20,-000.01,0000.02,-000.05,25.5,09.0,0682.0,31.1
2020-08-20T02:21:00Z,00000388,00000608,-000.29,0000.51,0000.52,0000.70,-000.18,-000.01,-000.02,-000.03,-000.13,25.5,09.0,0682.1,31.1
2020-08-20T02:22:00Z,00000388,00000608,0000.72,0001.37,0000.37,0000.80,0000.15,-000.22,-000.16,0000.17,0000.02,25.5,08.9,0682.1,31.1
2020-08-20T02:23:00Z,00000388,00000608,0000.91,0000.44,0000.09,-000.43,0000.34,0000.33,0000.04,-000.07,0000.15,25.5,09.0,0682.0,31.1
2020-08-20T02:24:00Z,00000388,00000608,0000.55,0000.05,-000.22,0000.72,-000.37,-000.20,0000.18,0000.00,-000.16,25.5,08.9,0682.0,31.1
2020-08-20T02:25:00Z,00000388,00000608,-000.46,0000.30,0000.49,-000.16,0000.07,0000.27,-000.09,-000.13,0000.07,25.5,09.0,0682.0,31.1
2020-08-20T02:26:00Z,00000388,00000608,0000.46,0000.42,-000.10,0000.47,0000.02,-000.05,0000.05,0000.05,-000.03,25.5,09.0,0682.0,31.1
2020-08-20T02:27:00Z,00000388,00000608,0000.41,0000.20,0000.23,-000.19,0000.74,0000.38,-000.02,-000.06,0000.00,25.5,09.0,0682.0,31.1
2020-08-20T02:28:00Z,00000388,00000608,-000.26,0000.98,0000.82,-000.70,0000.11,-000.02,-000.06,0000.05,0000.03,25.5,08.9,0682.0,31.1
2020-08-20T02:29:00Z,00000388,00000608,0001.45,0000.71,0001.26,0000.33,-000.00,0000.01,0000.13,0000.02,-000.04,25.5,08.9,0682.0,31.0
2020-08-20T02:30:00Z,00000388,00000608,0000.46,0000.31,-000.43,0000.61,-000.04,-000.16,-000.14,-000.05,-000.10,25.5,08.9,0682.1,31.1
2020-08-20T02:31:00Z,00000388,00000608,0000.30,0000.61,0000.27,0000.06,0000.47,0000.13,-000.05,0000.04,0000.16,25.5,09.0,0682.0,31.1
2020-08-20T02:32:00Z,00000388,00000608,0000.45,-000.05,0000.48,0000.18,0000.17,0000.11,-000.06,-000.19,-000.25,25.5,08.8,0682.1,31.1
2020-08-20T02:33:00Z,00000388,00000608,0001.30,0000.65,-000.08,0000.56,0000.18,0000.34,-000.05,0000.11,0000.18,25.5,08.8,0682.1,31.0
2020-08-20T02:34:00Z,00000388,00000608,-000.08,0000.43,0000.62,0000.13,0000.10,0000.28,0000.09,-000.05,0000.02,25.5,08.9,0682.0,31.0
2020-08-20T02:35:00Z,00000388,00000608,0000.73,0000.65,0000.88,-000.29,0000.33,-000.02,0000.02,0000.16,-000.04,25.5,08.8,0682.0,31.0
2020-08-20T02:36:00Z,00000388,00000608,-000.45,-000.20,0000.20,0000.45,0000.28,0000.42,-000.11,-000.14,-000.10,25.5,08.8,0682.1,31.0
2020-08-20T02:37:00Z,00000388,00000608,0000.43,0000.37,0000.23,0000.66,-000.03,-000.22,0000.11,-000.02,0000.09,25.5,08.8,0682.1,31.0
2020-08-20T02:38:00Z,00000388,00000608,0000.40,0000.12,-000.14,0000.19,0000.17,0000.14,-000.14,0000.01,-000.18,25.5,08.8,0682.1,31.0
2020-08-20T02:39:00Z,00000388,00000608,0001.06,-000.24,0000.36,0000.09,-000.15,0000.11,0000.02,-000.17,0000.04,25.5,08.8,0682.1,31.0
2020-08-20T02:40:00Z,00000388,00000608,-000.62,0000.23,0000.21,-000.34,-000.10,0000.37,-000.01,0000.04,-000.04,25.5,08.8,0682.1,31.1
2020-08-20T02:41:00Z,00000388,00000608,-000.40,0000.40,0000.41,-000.10,0000.23,-000.02,-000.05,0000.01,0000.09,25.5,08.8,0682.1,31.1
2020-08-20T02:42:00Z,00000388,00000608,0000.24,-000.20,0000.06,-000.38,0000.14,0000.15,-000.12,-000.07,-000.15,25.5,08.7,0682.1,31.1
2020-08-20T02:43:00Z,00000388,00000608,-000.44,0000.55,0000.07,-000.11,0000.30,-000.01,0000.03,-000.01,0000.01,25.5,08.7,0682.1,31.0
2020-08-20T02:44:00Z,00000388,00000608,0000.21,0000.65,0000.83,0000.22,-000.15,0000.33,-000.03,-000.16,-000.02,25.5,08.8,0682.1,31.0
2020-08-20T02:45:00Z,00000388,00000608,0000.72,0000.36,0000.84,0000.34,0000.22,0000.53,0000.09,0000.08,0000.03,25.5,08.8,0682.1,31.1
2020-08-20T02:46:00Z,00000388,00000608,-000.55,-000.04,0000.16,0000.18,-000.13,0000.18,-000.06,0000.01,-000.06,25.5,08.7,0682.1,31.1
2020-08-20T02:47:00Z,00000388,00000608,0000.21,0000.34,0000.07,-000.06,0000.14,0000.34,0000.07,0000.11,0000.09,25.5,08.7,0682.1,31.1
2020-08-20T02:48:00Z,00000388,00000608,-000.01,0000.74,-000.17,0000.94,0000.25,0000.06,-000.23,-000.11,-000.18,25.5,08.7,0682.1,31.1
2020-08-20T02:49:00Z,00000388,00000608,-000.25,0000.11,-000.18,-000.15,-000.13,0000.22,0000.02,-000.02,-000.05,25.5,08.7,0682.1,31.1
2020-08-20T02:50:00Z,00000388,00000608,0000.25,0000.07,0000.18,0000.29,-000.20,0000.05,0000.11,-000.02,0000.08,25.5,08.7,0682.1,31.1
2020-08-20T02:51:00Z,00000388,00000608,0000.20,0000.02,0000.67,-000.09,0000.17,0000.48,-000.02,0000.16,-000.05,25.5,08.7,0682.1,31.1
2020-08-20T02:52:00Z,00000388,00000608,0000.51,-000.25,0000.18,0000.86,-000.31,-000.31,-000.08,-000.28,0000.17,25.5,08.7,0682.1,31.0
2020-08-20T02:53:00Z,00000388,00000608,0000.11,0000.24,0000.58,0000.49,0000.22,0000.23,-000.00,0000.12,-000.16,25.5,08.6,0682.1,31.0
2020-08-20T02:54:00Z,00000388,00000608,-000.54,0000.27,0000.55,-000.51,-000.21,0000.50,-000.14,-000.11,-000.10,25.5,08.6,0682.1,31.1
2020-08-20T02:55:00Z,00000388,00000608,0001.04,0000.74,0000.34,0000.20,0000.26,0000.11,0000.21,0000.02,0000.01,25.5,08.6,0682.1,31.0
2020-08-20T02:56:00Z,00000388,00000608,0000.28,0000.09,-000.09,0000.28,-000.45,0000.09,-000.08,-000.12,0000.00,25.5,08.6,0682.1,31.0
2020-08-20T02:57:00Z,00000388,40000608,,,,,,,,,,25.5,08.5,0682.1,31.1
2020-08-20T02:58:00Z,00000388,60000608,,,,,,,,,,25.6,08.5,0681.2,31.1
2020-08-20T02:59:00Z,00000388,20000608,,,,,,,,,,25.7,08.4,0681.1,31.1
2020-08-20T03:00:00Z,00000388,20000608,,,,,,,,,,25.7,08.3,0681.1,31.1
2020-08-20T03:01:00Z,00000388,20000608,,,,,,,,,,25.7,08.3,0681.1,31.0
2020-08-20T03:02:00Z,00000388,20000608,,,,,,,,,,25.8,08.3,0681.1,31.0
2020-08-20T03:03:00Z,00000388,60000608,,,,,,,,,,25.8,08.3,0681.1,31.0
2020-08-20T03:04:00Z,00000388,40000608,-000.35,0000.59,0000.70,0000.21,0000.29,0000.46,-000.18,0000.04,-000.01,25.6,08.5,0682.0,31.1
2020-08-20T03:05:00Z,00000388,00000608,0000.52,-000.00,0000.12,-000.66,0000.13,-000.50,0000.08,-000.06,-000.07,25.6,08.5,0682.1,31.1
2020-08-20T03:06:00Z,00000388,00000608,0000.86,0000.10,0000.16,-000.39,-000.00,0000.03,-000.06,0000.02,-000.03,25.6,08.5,0682.1,31.1
2020-08-20T03:07:00Z,00000388,00000608,-000.25,0000.38,-000.21,0000.47,-000.07,0000.06,0000.13,-000.18,0000.01,25.6,08.6,0682.1,31.1
2020-08-20T03:08:00Z,00000388,00000608,-000.53,0000.57,-000.13,-000.18,0000.26,0000.32,-000.13,0000.20,0000.03,25.6,08.6,0682.1,31.1
2020-08-20T03:09:00Z,00000388,00000608,0001.19,-000.09,0000.09,-000.67,-000.07,-000.22,-000.04,-000.02,0000.02,25.6,08.6,0682.1,31.1
2020-08-20T03:10:00Z,00000388,00000608,-000.66,0000.41,0000.08,0000.10,-000.02,0000.36,0000.12,-000.00,-000.08,25.6,08.6,0682.0,31.1